This is the latest recevied weather packets stored in our database for station/object K0SDS. If no packets are shown the sender has not sent any weather packets the latest 1 day(s).
| Time | Temp. | Humidity | Pressure | Rain* | Wind** | Luminosity | Snow |
|---|---|---|---|---|---|---|---|
| 1778002641 | 9.44° C | 89% | 1012.7 hPa | 0 mm | 0.45 m/s, 70° | 189 W/m² | - |
| 1778002338 | 9.44° C | 89% | 1012.8 hPa | 0 mm | 0.45 m/s, 86° | 122 W/m² | - |
| 1778002035 | 9.44° C | 89% | 1012.9 hPa | 0 mm | 0 m/s | 96 W/m² | - |
| 1778001732 | 9.44° C | 89% | 1012.7 hPa | 1.27 mm | 0.45 m/s, 81° | 106 W/m² | - |
| 1778001432 | 9.44° C | 90% | 1012.7 hPa | 1.27 mm | 0 m/s | 135 W/m² | - |
| 1778001129 | 8.89° C | 90% | 1012.6 hPa | 0 mm | 0 m/s | 102 W/m² | - |
| 1778000826 | 8.89° C | 90% | 1012.7 hPa | 0 mm | 0.45 m/s, 86° | 87 W/m² | - |
| 1778000523 | 8.89° C | 90% | 1012.5 hPa | 0 mm | 0 m/s | 85 W/m² | - |
| 1778000228 | 8.89° C | 90% | 1012.3 hPa | 0 mm | 0.45 m/s, 85° | 95 W/m² | - |
| 1777999920 | 8.89° C | 91% | 1012.4 hPa | 0 mm | 0.45 m/s, 83° | 69 W/m² | - |
| 1777999615 | 8.89° C | 91% | 1012.4 hPa | 0 mm | 0.89 m/s, 78° | 66 W/m² | - |
| 1777999313 | 8.89° C | 92% | 1012.7 hPa | 0 mm | 0.89 m/s, 67° | 71 W/m² | - |
| 1777999011 | 8.89° C | 93% | 1012.5 hPa | 0 mm | 1.34 m/s, 10° | 92 W/m² | - |
| 1777998709 | 8.89° C | 93% | 1012.6 hPa | 0 mm | 0.89 m/s, 59° | 85 W/m² | - |
| 1777998407 | 8.89° C | 93% | 1012.6 hPa | 0 mm | 0.45 m/s, 61° | 119 W/m² | - |
| 1777998104 | 8.89° C | 94% | 1012.4 hPa | 0 mm | 0.45 m/s, 82° | 143 W/m² | - |
| 1777997800 | 8.89° C | 94% | 1012.4 hPa | 0 mm | 0.45 m/s, 81° | 156 W/m² | - |
| 1777997498 | 8.89° C | 94% | 1012.4 hPa | 0 mm | 0.45 m/s, 77° | 75 W/m² | - |
| 1777997196 | 8.89° C | 94% | 1012.3 hPa | 0 mm | 0.89 m/s, 41° | 105 W/m² | - |
| 1777996893 | 8.89° C | 94% | 1012.4 hPa | 0 mm | 0.89 m/s, 52° | 108 W/m² | - |
| 1777996589 | 8.89° C | 94% | 1012.4 hPa | 0 mm | 0.45 m/s, 76° | 92 W/m² | - |
| 1777996285 | 8.89° C | 94% | 1012.3 hPa | 0 mm | 0 m/s | 85 W/m² | - |
| 1777995981 | 8.33° C | 94% | 1012.4 hPa | 0 mm | 0.89 m/s, 71° | 98 W/m² | - |
| 1777995677 | 8.33° C | 94% | 1012.5 hPa | 0 mm | 0 m/s | 104 W/m² | - |
| 1777995375 | 8.33° C | 94% | 1012.3 hPa | 0 mm | 0.45 m/s, 71° | 88 W/m² | - |
* Rain latest hour (hover to see other rain measurements)
** Current wind speed in m/s (hover to see current wind gust speed)